STARLINK-11252, 61051

Orbit data source: Space-Track

STARLINK-11252, 61051 is a payload satellite owned by SpaceX/Seattle (US) in LEO that was launched on Fri, 13 Sep 2024 UTC via an FALCON 9 launch vehicle from the Air Force Western Test Range (AFWTR). Payload-class satellites include a variety of spacecraft equipped with specific instruments for various scientific and technological missions. These include communications satellites like Starlink; space stations such as the ISS; scientific satellites like the Hubble; Earth observation satellites from companies like Planet Labs, Umbra, and HawkEye 360; GPS; miniature CubeSats for education and research; and military/defense satellites.

Loading next visibility...
Identifier
61051, 2024-164B
Orbit
LEO
Country
Flag of USUS
Related business
Manufacturer
SpaceX/Seattle
Mission
Operational Commercial Communications
Bus & Motor
STARLINK V2MD, Unknown motor
Mass
960 kg wet, ~910 kg dry
Launch date (UTC)
2024-09-13 (2 years ago)
Launch vehicle
FALCON 9
Launch site
Air Force Western Test Range (AFWTR)
Object type
Payload
Rocket body
Debris
Shape & HBR
Box + 2 Pan, 18.1 m
Radar Cross Section
36.964 m², Large (>1 m²)

Expand to show TLE details & history
Last TLE update: 15 hours ago

TLE from 15 hours ago
0 STARLINK-11252
1 61051U 24164B   26171.22411306 -.00018874  00000-0 -15127-3 0  9995
2 61051  53.1596 165.7714 0001272 122.6794 237.4346 15.69711394101522
Epoch: 2026-06-20T05:22Z
TLE epoch observation values (Epoch: 2026-06-20T05:22:43.368Z)
Latitude
-0.00008°
Longitude
176.64884°
Altitude
361.099 km
Speed
7.694 km/s
True Right ascension
11h 03m 05s
True Declination
0° 00' 00"
Sunlit
Object was in daylight at epoch
Visualization orbit readout
Latitude
Unknown
Longitude
Unknown
Altitude
Unknown
Speed
Unknown
Apparent Right ascension
Unknown
Apparent Declination
Unknown
Sunlit
N/A
Visualization observer readout
Local Sidereal Time
07:18:21
Azimuth
Unknown
Elevation
Unknown
Doppler factor
Unknown
Orbital elements
Apogee altitude
360.841 km
Perigee altitude
359.126 km
Semi-major axis
6,738.121 km
Eccentricity
0.00013
Inclination
53.1596°
RAAN
165.7714°
Arg. of periapsis
122.6794°
True anomaly
237.42232°
Mean anomaly
237.4346°
Eccentric anomaly
237.42846°
Mean motion
3.92405 °/min
Orbital period
91.74 mins
BSTAR
-0.00015127
Loading maneuver chart data...
Computing Atmospheric mass density...
Loading historical data...
Loading historical data...
Loading historical data...
Loading historical data...
Loading historical data...
Loading historical data...
Loading historical data...

Documentation

Showing up to 5 results
|